Regional Weather Roundup
Issued by NWS

Home | Current Version | Previous Version | Text Only | Print | Product List | Glossary On
Versions: 1 2 3 4 5 6 7 8 9 10 11 12 13 14 15 16 17 18 19 20 21 22 23 24 25 26 27 28 29 30 31 32 33 34 35 36 37 38 39 40 41 42 43 44 45 46 47 48 49 50
000
ASUS43 KLMK 261510
RWRKY
KENTUCKY REGIONAL WEATHER ROUNDUP
NATIONAL WEATHER SERVICE LOUISVILLE KY
1000 AM EST SUN FEB 26 2017

NOTE "FAIR" INDICATES FEW OR NO CLOUDS BELOW 12,000 FEET
WITH NO SIGNIFICANT WEATHER AND/OR OBSTRUCTIONS TO VISIBILITY.

KYZ001>023-026-027-061>063-070>075-261600-
WESTERN AND SOUTH CENTRAL KENTUCKY

CITY           SKY/WX    TMP DP  RH WIND       PRES   REMARKS
PADUCAH        MOSUNNY   38  20  48 SE10      30.21R WCI  31
HENDERSON      SUNNY     36  19  51 SE12      30.23R WCI  27
OWENSBORO      SUNNY     35  20  54 S9        30.25R WCI  28
HOPKINSVILLE   SUNNY     38  17  43 SE9       30.23R WCI  31
BOWLING GREEN  SUNNY     37  21  52 E9        30.26R WCI  30
GLASGOW        SUNNY     36  18  47 SE6       30.25R WCI  31
$$

KYZ024-025-028>034-038-045-046-053-261600-
NORTH CENTRAL KENTUCKY

CITY           SKY/WX    TMP DP  RH WIND       PRES   REMARKS
LOUISVILLE/SDF SUNNY     34  15  46 S5        30.24R WCI  30
LOUISVILLE/LOU SUNNY     34  16  47 S3        30.25R
FORT KNOX      SUNNY     33  18  55 E6        30.21R WCI  27
$$

KYZ035>037-039>044-047>052-055>060-089>105-261600-
NORTHEAST KENTUCKY

CITY           SKY/WX    TMP DP  RH WIND       PRES   REMARKS
LEXINGTON      SUNNY     32  15  49 S3        30.23F
COVINGTON      SUNNY     30  18  60 S8        30.22R WCI  22
FRANKFORT      SUNNY     33  16  49 CALM      30.23S
$$

KYZ054-064>069-076>088-106>120-261600-
SOUTHEAST KENTUCKY

CITY           SKY/WX    TMP DP  RH WIND       PRES   REMARKS
JACKSON        SUNNY     33  19  56 NW6       30.22F WCI  28
LONDON         SUNNY     33  17  51 S3        30.24S
SOMERSET       SUNNY     32  21  64 CALM      30.26F
MIDDLESBORO    SUNNY     35  20  55 CALM      30.26S
MONTICELLO     SUNNY     34  19  54 CALM      30.27F
$$




USA.gov is the U.S. government's official web portal to all federal, state and local government web resources and services.